Date String (YYYY-MM-DD hh:mm:ss) UTC,Instrument flags,Ambient pressure (hPa),Sample flow (lpm),Bypass flow (lpm),Sample temperature (°C),Ambient temperature (°C),ASC tube jacket temperature (°C),LED temperature (°C),Box temperature (°C),Sample RH (%),Span deviation,Mass concentration (μg/m³),Mass concentration (μg/m³),Mass concentration (μg/m³)
DateTimeUTC,F1_M11,P_M11,Q1_M11,Q2_M11,T1_M11,T2_M11,T3_M11,T4_M11,T5_M11,U1_M11,ZSPAN_M11,X0_M11,X2_M11,X1_M11
2021-11-01 22:00:00,,0832.2,4.99,0.00,23.7,22.9,00.0,32.7,25.5,18.6,0000.0,0007.83,0006.50,0006.42
2021-11-01 22:01:00,,0832.3,5.01,0.00,23.7,22.9,00.0,32.7,25.5,18.4,0000.0,0007.85,0006.53,0006.45
2021-11-01 22:02:00,,0832.4,5.00,0.00,23.7,22.9,00.0,32.7,25.5,18.3,0000.0,0007.89,0006.56,0006.48
2021-11-01 22:03:00,,0832.4,5.00,0.00,23.7,22.9,00.0,32.7,25.5,18.4,0000.0,0007.83,0006.60,0006.51
2021-11-01 22:04:00,,0832.2,5.00,0.00,23.7,22.9,00.0,32.7,25.5,18.5,0000.0,0007.88,0006.65,0006.55
2021-11-01 22:05:00,,0832.2,4.99,0.00,23.7,22.9,00.0,32.7,25.5,18.5,0000.0,0007.85,0006.68,0006.60
2021-11-01 22:06:00,,0832.1,5.00,0.00,23.7,22.9,00.0,32.7,25.5,18.4,0000.0,0007.80,0006.71,0006.62
2021-11-01 22:07:00,,0832.2,4.99,0.00,23.7,22.9,00.0,32.7,25.5,18.4,0000.0,0007.81,0006.73,0006.65
2021-11-01 22:08:00,,0832.2,5.02,0.00,23.7,22.9,00.0,32.7,25.5,18.3,0000.0,0007.78,0006.73,0006.66
2021-11-01 22:09:00,,0832.1,4.99,0.00,23.7,22.9,00.0,32.7,25.5,18.4,0000.0,0007.78,0006.73,0006.67
2021-11-01 22:10:00,,0832.0,4.99,0.00,23.7,22.9,00.0,32.7,25.5,18.4,0000.0,0007.79,0006.74,0006.68
2021-11-01 22:11:00,,0831.9,5.01,0.00,23.7,22.9,00.0,32.7,25.5,18.4,0000.0,0007.80,0006.74,0006.68
2021-11-01 22:12:00,,0831.9,5.01,0.00,23.7,22.9,00.0,32.7,25.5,18.3,0000.0,0007.86,0006.76,0006.68
2021-11-01 22:13:00,,0831.9,4.99,0.00,23.7,22.9,00.0,32.7,25.5,18.4,0000.0,0007.90,0006.78,0006.68
2021-11-01 22:14:00,,0832.0,5.00,0.00,23.7,22.9,00.0,32.7,25.5,18.4,0000.0,0007.88,0006.77,0006.67
2021-11-01 22:15:00,,0831.9,5.01,0.00,23.7,22.9,00.0,32.7,25.5,18.4,0000.0,0007.84,0006.75,0006.65
2021-11-01 22:16:00,,0832.0,4.99,0.00,23.7,22.9,00.0,32.7,25.5,18.3,0000.0,0007.83,0006.74,0006.65
2021-11-01 22:17:00,,0832.0,5.01,0.00,23.7,22.8,00.0,32.7,25.5,18.3,0000.0,0007.87,0006.72,0006.64
2021-11-01 22:18:00,,0832.0,5.00,0.00,23.7,22.8,00.0,32.7,25.5,18.4,0000.0,0007.90,0006.73,0006.63
2021-11-01 22:19:00,,0832.0,5.00,0.00,23.7,22.8,00.0,32.7,25.5,18.6,0000.0,0007.87,0006.70,0006.60
2021-11-01 22:20:00,,0832.1,5.00,0.00,23.6,22.8,00.0,32.7,25.5,18.5,0000.0,0007.88,0006.69,0006.58
2021-11-01 22:21:00,,0832.1,5.00,0.00,23.6,22.8,00.0,32.7,25.5,18.6,0000.0,0007.87,0006.67,0006.56
2021-11-01 22:22:00,,0832.1,4.99,0.00,23.6,22.8,00.0,32.7,25.5,18.5,0000.0,0007.87,0006.66,0006.54
2021-11-01 22:23:00,,0832.1,5.01,0.00,23.6,22.8,00.0,32.7,25.5,18.5,0000.0,0007.82,0006.63,0006.53
2021-11-01 22:24:00,,0832.1,4.99,0.00,23.6,22.8,00.0,32.7,25.5,18.6,0000.0,0007.81,0006.61,0006.52
2021-11-01 22:25:00,,0832.1,5.02,0.00,23.6,22.8,00.0,32.7,25.5,18.7,0000.0,0007.82,0006.61,0006.51
2021-11-01 22:26:00,,0832.2,4.98,0.00,23.6,22.8,00.0,32.7,25.5,18.8,0000.0,0007.81,0006.59,0006.49
2021-11-01 22:27:00,,0832.3,5.01,0.00,23.7,22.8,00.0,32.7,25.5,18.7,0000.0,0007.79,0006.57,0006.48
2021-11-01 22:28:00,,0832.3,4.99,0.00,23.7,22.9,00.0,32.7,25.5,18.6,0000.0,0007.72,0006.55,0006.46
2021-11-01 22:29:00,,0832.3,5.01,0.00,23.7,22.9,00.0,32.7,25.5,18.6,0000.0,0007.70,0006.54,0006.46
2021-11-01 22:30:00,,0832.4,4.99,0.00,23.7,22.9,00.0,32.7,25.5,18.7,0000.0,0007.72,0006.56,0006.47
2021-11-01 22:31:00,,0832.3,5.00,0.00,23.7,22.9,00.0,32.7,25.5,18.5,0000.0,0007.72,0006.55,0006.47
2021-11-01 22:32:00,,0832.3,4.99,0.00,23.7,22.9,00.0,32.7,25.5,18.4,0000.0,0007.72,0006.56,0006.48
2021-11-01 22:33:00,,0832.3,5.01,0.00,23.7,22.9,00.0,32.7,25.5,18.5,0000.0,0008.50,0006.56,0006.50
2021-11-01 22:34:00,,0832.3,4.99,0.00,23.7,22.9,00.0,32.7,25.5,18.4,0000.0,0008.71,0006.57,0006.50
2021-11-01 22:35:00,,0832.4,4.99,0.00,23.7,22.9,00.0,32.7,25.5,18.5,0000.0,0008.67,0006.56,0006.50
2021-11-01 22:36:00,,0832.3,5.00,0.00,23.7,22.9,00.0,32.7,25.5,18.5,0000.0,0008.66,0006.56,0006.51
2021-11-01 22:37:00,,0832.3,5.01,0.00,23.7,22.9,00.0,32.7,25.5,18.5,0000.0,0008.66,0006.58,0006.53
2021-11-01 22:38:00,,0832.3,5.01,0.00,23.7,22.9,00.0,32.7,25.5,18.6,0000.0,0008.86,0006.59,0006.53
2021-11-01 22:39:00,,0832.3,5.01,0.00,23.7,22.9,00.0,32.7,25.5,18.6,0000.0,0009.34,0006.61,0006.55
2021-11-01 22:40:00,,0832.4,4.99,0.00,23.7,22.9,00.0,32.7,25.5,18.7,0000.0,0009.33,0006.61,0006.56
2021-11-01 22:41:00,,0832.4,4.99,0.00,23.7,22.9,00.0,32.7,25.5,18.7,0000.0,0009.32,0006.62,0006.57
2021-11-01 22:42:00,,0832.5,5.00,0.00,23.7,22.9,00.0,32.7,25.5,18.8,0000.0,0009.29,0006.62,0006.58
2021-11-01 22:43:00,,0832.5,4.99,0.00,23.7,22.9,00.0,32.7,25.5,18.8,0000.0,0009.28,0006.62,0006.59
2021-11-01 22:44:00,,0832.5,5.00,0.00,23.7,22.9,00.0,32.7,25.5,18.6,0000.0,0008.63,0006.63,0006.58
2021-11-01 22:45:00,,0832.5,4.99,0.00,23.7,22.9,00.0,32.7,25.5,18.5,0000.0,0008.30,0006.64,0006.59
2021-11-01 22:46:00,,0832.5,5.01,0.00,23.7,22.9,00.0,32.7,25.5,18.5,0000.0,0008.37,0006.67,0006.62
2021-11-01 22:47:00,,0832.4,5.00,0.00,23.7,22.9,00.0,32.7,25.5,18.6,0000.0,0008.61,0006.71,0006.65
2021-11-01 22:48:00,,0832.4,4.99,0.00,23.7,22.9,00.0,32.7,25.5,18.6,0000.0,0008.67,0006.74,0006.67
2021-11-01 22:49:00,,0832.3,5.00,0.00,23.7,22.9,00.0,32.7,25.5,18.6,0000.0,0008.58,0006.76,0006.68
2021-11-01 22:50:00,,0832.4,5.01,0.00,23.7,22.9,00.0,32.7,25.5,18.5,0000.0,0008.09,0006.77,0006.70
2021-11-01 22:51:00,,0832.4,4.99,0.00,23.7,22.9,00.0,32.7,25.5,18.5,0000.0,0008.13,0006.80,0006.71
2021-11-01 22:52:00,,0832.5,5.00,0.00,23.7,22.9,00.0,32.8,25.5,18.6,0000.0,0008.18,0006.83,0006.73
2021-11-01 22:53:00,,0832.5,4.99,0.00,23.7,22.9,00.0,32.8,25.5,18.6,0000.0,0008.24,0006.86,0006.75
2021-11-01 22:54:00,,0832.5,5.01,0.00,23.7,22.9,00.0,32.8,25.5,18.6,0000.0,0008.32,0006.90,0006.77
2021-11-01 22:55:00,,0832.4,5.00,0.00,23.7,22.9,00.0,32.8,25.5,18.5,0000.0,0008.36,0006.91,0006.79
2021-11-01 22:56:00,,0832.4,4.99,0.00,23.7,22.9,00.0,32.7,25.5,18.5,0000.0,0008.44,0006.95,0006.80
2021-11-01 22:57:00,,0832.5,5.01,0.00,23.7,22.9,00.0,32.7,25.5,18.6,0000.0,0008.41,0006.95,0006.79
2021-11-01 22:58:00,,0832.5,4.99,0.00,23.7,22.9,00.0,32.7,25.5,18.8,0000.0,0008.21,0006.93,0006.79
2021-11-01 22:59:00,,0832.5,5.00,0.00,23.7,22.9,00.0,32.7,25.5,18.9,0000.0,0008.18,0006.91,0006.77
